STARLINK-4073 (52672 NORAD) Tracking and Keplerian Element Data

This shows tracking and keplerian element data for the satellite.

Feedback or suggestion? Click here.




ElementValue
Catalog52672
NameSTARLINK-4073
Epoch Orbit130
Epoch Day192.91667824
Epoch Year2022
RAAN35.403
Inclination53.2175
Eccentricity0.0001751
Argument of Perigee45.6524
Mean Anonmoly84.6977
Mean Motion15.20442344
Decay Rate-0.00724747
L11 52672U 22053S 22192.91667824 -.00724747 00000+0 -35203-1 0 9999
L22 52672 53.2175 35.4030 0001751 45.6524 84.6977 15.20442344 1306

Live tracking and technical data element details for STARLINK-4073 (NORAD 52672). STARLINK-4073 can be tracked NOW for your location showing map with azimuth and elevation plus other details from your city location.

Track the satellite on the map from your city or location and see movement details for azimuth, elevation, latitude, longitude, range, height, and movement on the map or in text.







IsCatalogInMostPopularTable: catalog: 52672, numindb: 7
Update: records affected: 1



GetName: 52672 STARLINK-4073

Hit Count: updated at: Sat, 13 Aug 2022 23:55:44 GMT